Change the Weather History Date:

Tuesday, December 3, 2013

  Actual Average Record
Temperature  
Mean Temperature 22 °F -  
Max Temperature 33 °F 45 °F 69 °F (2007)
Min Temperature 12 °F 30 °F 11 °F (1929)
Degree Days  
Heating Degree Days 42    
Moisture  
Dew Point 19 °F    
Average Humidity 71    
Maximum Humidity 92    
Minimum Humidity 50    
Precipitation  
Precipitation 0.05 in - - ()
Sea Level Pressure  
Sea Level Pressure 30.17 in    
Wind  
Wind Speed 8 mph (NW)    
Max Wind Speed 16 mph    
Max Gust Speed -    
Visibility 8 miles    
Events Snow    
Averages and records for this station are not official NWS values.
T = Trace of Precipitation, MM = Missing Value Source: NWS Daily Summary

Daily Weather History Graph

Daily Weather History Graph

Search for Another Location

Airport or City:

Trip Planner

Search our weather history database for the weather conditions in past years. The results will help you decide how hot, cold, wet, or windy it might be!

Date:

Astronomy

Dec. 03, 2013 Rise Set
Actual Time 7:20 AM PST 4:13 PM PST
Civil Twilight 6:46 AM PST 4:47 PM PST
Nautical Twilight 6:09 AM PST 5:24 PM PST
Astronomical Twilight 5:33 AM PST 6:00 PM PST
Moon 7:53 AM PST (12/3) 5:23 PM PST (12/3)
Length of Visible Light 10h 00m
Length of Day
8h 52m
New Moon, 1% of the Moon is Illuminated
Dec 3
New Moon
Dec 9
First Quarter
Dec 17
Full
Dec 25
Last Quarter
Jan 1
New

Hourly Weather History & Observations

Time (PST) Temp. Windchill Dew Point Humidity Pressure Visibility Wind Dir Wind Speed Gust Speed Precip Events Conditions
12:53 AM 33.1 °F 24.4 °F 21.0 °F 61% 30.02 in 10.0 mi NNE 11.5 mph - N/A   Overcast
1:53 AM 33.1 °F 25.5 °F 16.0 °F 50% 30.04 in 10.0 mi North 9.2 mph - N/A   Overcast
2:53 AM 32.0 °F 26.4 °F 17.1 °F 54% 30.06 in 10.0 mi North 5.8 mph - N/A   Overcast
3:53 AM 30.9 °F 24.3 °F 19.0 °F 61% 30.08 in 10.0 mi NNW 6.9 mph - 0.00 in   Overcast
4:53 AM 30.0 °F 21.7 °F 23.0 °F 75% 30.10 in 6.0 mi NW 9.2 mph - 0.00 in Snow Light Snow
5:03 AM 30.0 °F 21.7 °F 23.0 °F 75% 30.08 in 5.0 mi NW 9.2 mph - 0.00 in Snow Light Snow
5:24 AM 28.9 °F 20.4 °F 24.1 °F 82% 30.09 in 1.8 mi WNW 9.2 mph - 0.00 in Snow Light Snow
5:41 AM 28.0 °F 20.0 °F 25.0 °F 88% 30.10 in 1.8 mi WNW 8.1 mph - 0.01 in Snow Light Snow
5:53 AM 28.0 °F 20.8 °F 26.1 °F 92% 30.12 in 2.0 mi West 6.9 mph - 0.01 in Snow Light Snow
6:13 AM 28.0 °F 21.7 °F 25.0 °F 88% 30.10 in 3.0 mi West 5.8 mph - 0.01 in Snow Light Snow
6:27 AM 28.0 °F 20.0 °F 25.0 °F 88% 30.11 in 2.0 mi WNW 8.1 mph - 0.01 in Snow Light Snow
6:34 AM 28.9 °F 21.9 °F 25.0 °F 85% 30.11 in 1.5 mi WNW 6.9 mph - 0.02 in Snow Light Snow
6:42 AM 28.9 °F 22.8 °F 26.1 °F 89% 30.12 in 2.0 mi WNW 5.8 mph - 0.03 in Snow Light Snow
6:53 AM 28.9 °F 21.9 °F 26.1 °F 89% 30.13 in 3.0 mi NNW 6.9 mph - 0.03 in Snow Light Snow
7:08 AM 30.0 °F 22.4 °F 25.0 °F 82% 30.12 in 9.0 mi North 8.1 mph - 0.00 in Snow Light Snow
7:31 AM 28.9 °F 21.9 °F 24.1 °F 82% 30.13 in 7.0 mi North 6.9 mph - 0.01 in Snow Light Snow
7:53 AM 28.9 °F 23.9 °F 21.9 °F 75% 30.16 in 9.0 mi NW 4.6 mph - 0.01 in Snow Light Snow
8:53 AM 30.0 °F 18.7 °F 15.1 °F 54% 30.17 in 10.0 mi North 16.1 mph - 0.00 in   Mostly Cloudy
9:53 AM 30.0 °F 20.5 °F 15.1 °F 54% 30.20 in 10.0 mi NNW 11.5 mph - N/A   Mostly Cloudy
10:53 AM 32.0 °F 21.6 °F 15.1 °F 50% 30.20 in 10.0 mi North 15.0 mph - N/A   Mostly Cloudy
11:53 AM 30.9 °F 21.7 °F 16.0 °F 54% 30.21 in 10.0 mi NE 11.5 mph - N/A   Overcast
12:53 PM 30.9 °F 25.2 °F 18.0 °F 59% 30.21 in 10.0 mi NNE 5.8 mph - N/A   Overcast
1:53 PM 30.9 °F 23.5 °F 18.0 °F 59% 30.22 in 10.0 mi ENE 8.1 mph - N/A   Overcast
2:53 PM 30.0 °F - 18.0 °F 61% 30.22 in 10.0 mi Calm Calm - N/A   Scattered Clouds
3:53 PM 27.0 °F 20.5 °F 19.9 °F 75% 30.24 in 10.0 mi SSW 5.8 mph - N/A   Overcast
4:53 PM 27.0 °F 21.6 °F 19.0 °F 72% 30.25 in 10.0 mi SSW 4.6 mph - N/A   Overcast
5:53 PM 27.0 °F 21.6 °F 19.0 °F 72% 30.26 in 10.0 mi SW 4.6 mph - N/A   Overcast
6:53 PM 25.0 °F 18.1 °F 17.1 °F 72% 30.26 in 10.0 mi West 5.8 mph - N/A   Scattered Clouds
7:53 PM 25.0 °F 20.7 °F 15.1 °F 66% 30.26 in 10.0 mi WNW 3.5 mph - N/A   Clear
8:53 PM 19.9 °F 11.1 °F 12.9 °F 74% 30.27 in 10.0 mi West 6.9 mph - N/A   Clear
9:53 PM 17.1 °F 7.6 °F 10.0 °F 74% 30.28 in 10.0 mi West 6.9 mph - N/A   Clear
10:53 PM 12.9 °F - 7.0 °F 77% 30.29 in 10.0 mi Calm Calm - N/A   Clear
11:53 PM 19.9 °F 12.1 °F 10.0 °F 65% 30.29 in 10.0 mi North 5.8 mph - N/A   Clear